Regional Weather Roundup
Issued by NWS

Home | Current Version | Previous Version | Text Only | Print | Product List | Glossary Off
Versions: 1 2 3 4 5 6 7 8 9 10 11 12 13 14 15 16 17 18 19 20 21 22 23 24 25 26 27 28 29 30 31 32 33 34 35 36 37 38 39 40 41 42 43 44 45 46 47 48 49 50

000
ASUS43 KLOT 230404
RWRIL

ILLINOIS REGIONAL WEATHER ROUNDUP
NATIONAL WEATHER SERVICE CHICAGO/ROMEOVILLE IL
1100 PM CDT MON MAY 22 2017

NOTE: "FAIR" INDICATES FEW OR NO CLOUDS BELOW 12,000 FEET WITH NO
SIGNIFICANT WEATHER AND/OR OBSTRUCTIONS TO VISIBILITY.

* THESE STATIONS ARE NOT UNDER NWS QUALITY CONTROL. THEY ALSO MAY NOT
  REPORT WEATHER SUCH AS PRECIPITATION OR FOG.

ILZ001-002-007-009-015-016-024-230500-
NORTHWEST ILLINOIS

CITY           SKY/WX    TMP DP  RH WIND       PRES   REMARKS
MOLINE         CLOUDY    60  53  77 SW9       29.87F
STERLING*      MOCLDY    58  55  90 VRB3      29.89F
$$

ILZ003-004-008-010-011-017-018-230500-
NORTH CENTRAL ILLINOIS

CITY           SKY/WX    TMP DP  RH WIND       PRES   REMARKS
ROCKFORD       PTCLDY    58  54  86 S13       29.88F
FREEPORT*      PTCLDY    56  54  93 S13       29.88F
ROCHELLE*      CLOUDY    56  54  92 S10       29.90F
DE KALB*       MOCLDY    57  54  91 SW9       29.90F
$$

ILZ005-006-012>014-019>023-230500-
NORTHEAST ILLINOIS

CITY           SKY/WX    TMP DP  RH WIND       PRES   REMARKS
CHICAGO-OHARE  CLOUDY    60  53  77 SW8       29.89F
CHICAGO-MIDWAY CLOUDY    60  55  83 S8        29.90F
AURORA         CLOUDY    60  55  83 SW8       29.90F
LANSING*       PTCLDY    60  54  81 W9        29.93S
WAUKEGAN       MOCLDY    62  54  74 SW16      29.87F
DUPAGE AIRPORT MOCLDY    57  55  93 S6        29.89F
WHEELING       CLOUDY    60  55  83 S7        29.90F
MORRIS*        MOCLDY    59  55  85 SW9       29.91F
ROMEOVILLE*    CLOUDY    58  57  97 SW9       29.91F
NORTHERLY ISL    N/A     61  52  72 SW6         N/A
$$

LMZ740>746-230500-
SOUTHERN LAKE MICHIGAN

STATION/POSITION SKY/WX   TEMP    WIND        PRES    VSBY  WAVE
                          AIR SEA DIR/SP/G                  HT/PER
                          (F)     (DEG/KT/KT) (MB)    (MI)  (FT/S)
SOUTHERN BUOY              50 45  210/ 10/ 10 1012.4          1/ 3
WILMETTE HARBOR            59 54                N/A           2/ 3
HARRISON CRIB              63     220/ 19/ 23   N/A
BURNHAM HARBOR             61     180/  8/ 11   N/A
CALUMET HARBOR             60     210/  5/ 11 1012.7F
BURNS HARBOR               63     230/  7/ 11 1013.9F
MICHIGAN CITY              62     220/ 13/ 15   N/A
MICHIGAN CITY 6N           56 53  230/  8/ 10   N/A           2/ 4
ST. JOSEPH                 58 54  230/ 10/ 12 1013.3F         2/ 4
$$

ILZ025>027-034>036-040-047-049-050-058-095>099-230500-
WEST-CENTRAL ILLINOIS

CITY           SKY/WX    TMP DP  RH WIND       PRES   REMARKS
QUINCY         LGT RAIN  58  56  93 S5        29.94F
GALESBURG*     CLOUDY    58  55  89 S10       29.89F
MACOMB*        CLOUDY    57  55  92 S10       29.95F
$$

ILZ028>032-037-038-041>044-048-051>054-059>061-230500-
CENTRAL ILLINOIS

CITY           SKY/WX    TMP DP  RH WIND       PRES   REMARKS
BLOOMINGTON    MOCLDY    57  55  93 S7        29.96S
DECATUR        CLOUDY    59  56  89 SE3       29.96F
PEORIA         LGT RAIN  58  57  97 SW9       29.95S
LACON*         DRIZZLE   58  56  94 S7        29.92F
LINCOLN*       LGT RAIN  60  60 100 CALM      29.97R
SPRINGFIELD    CLOUDY    61  60  97 CALM      29.97R
TAYLORVILLE    NOT AVBL
$$

ILZ033-039-045-046-055>057-062-063-230500-
EAST-CENTRAL ILLINOIS

CITY           SKY/WX    TMP DP  RH WIND       PRES   REMARKS
CHAMPAIGN      CLOUDY    59  54  83 NW3       29.97S
MATTOON        PTCLDY    61  51  70 S3        29.95F
$$

ILZ079-100>102-230500-
SOUTHWEST ILLINOIS

CITY           SKY/WX    TMP DP  RH WIND       PRES   REMARKS
BELLEVILLE     CLOUDY    63  53  67 CALM      29.95F
CAHOKIA*       CLOUDY    65  49  56 S3        29.93F
SPARTA*        CLOUDY    62  55  78 CALM      29.96S
$$

ILZ064>066-069>071-074>076-080>082-084>086-088>090-092>094-230500-
SOUTH-CENTRAL ILLINOIS

CITY           SKY/WX    TMP DP  RH WIND       PRES   REMARKS
CARBONDALE     CLEAR     59  57  93 CALM      29.95S
CAIRO*         CLEAR     65  53  64 SE6       29.94F
EFFINGHAM*     CLOUDY    60  58  92 CALM      29.97F
MARION         CLEAR     61  57  88 CALM      29.96F
MT. VERNON       N/A     59  56  89 CALM      29.95F
CENTRALIA*     MOCLDY    61  59  94 CALM      29.94F
SALEM*         CLOUDY    63  57  81 CALM      29.95F
$$

ILZ067-068-072-073-078-083-087-091-230500-
SOUTHEAST ILLINOIS

CITY           SKY/WX    TMP DP  RH WIND       PRES   REMARKS
LAWRENCEVILLE  CLOUDY    64  52  64 S6        29.97F
FLORA*         MOCLDY    64  56  75 CALM      29.96S
FAIRFIELD*     PTCLDY    64  53  66 CALM      29.94F
HARRISBURG*    CLEAR     58  53  83 CALM      29.96S
ROBINSON*      PTCLDY    60  51  71 S5        29.97F
CARMI*         CLOUDY    61  53  74 E5        29.96S
$$

ABBREVIATIONS USED IN REMARKS
   TC - TEMPERATURE IN CELSIUS
  WCI - WIND CHILL INDEX
   HX - HEAT INDEX
  VSB - VISIBILITY
$$





USA.gov is the U.S. government's official web portal to all federal, state and local government web resources and services.